GFSFLT2_con_mucape_102.txt.gz
CAPE
1192 1429 1575 1694 1736 1730 1788 1792 1765 1773 1768 1886 1979 1943 1801 1762 1758 1730 1768 1608 1573 1480 1229 1125 1136 955 669 593 588 558 536 520
1151 1378 1518 1470 1584 1663 1806 1845 1699 1551 1703 1860 1938 1821 1642 1528 1630 1625 1457 1346 1374 1071 915 840 936 698 546 529 559 534 464 461
1110 1224 1387 1332 1353 1568 1778 1886 1706 1373 1403 1609 1921 1790 1615 1457 1403 1368 1295 1296 908 749 721 599 497 409 342 331 460 448 412 360
1284 1085 1213 1344 1337 1525 1708 1779 1481 1355 1279 1173 1932 1762 1601 1432 1410 1250 1177 1064 707 417 326 275 232 155 195 176 337 326 275 229
1639 1270 1108 1291 1390 1288 1411 1416 1105 1192 1919 1462 1519 1775 1584 1391 1366 1250 1059 927 714 416 278 294 168 126 101 144 95 146 203 211
1970 1855 1492 1186 1390 1175 1193 1501 1157 1167 1614 1642 1717 1838 1622 1410 1292 1093 966 882 650 484 186 74 126 89 57 36 45 81 132 138
2201 2215 2013 1675 1507 1312 1059 1268 1452 1126 1241 1356 1731 1707 1465 1380 1254 1018 908 815 676 525 354 179 164 160 107 62 38 51 78 110
2372 2331 2277 2107 1635 1685 1416 1101 1131 1241 1374 1492 1613 1564 1360 1227 1090 984 881 831 716 593 538 503 178 186 179 91 55 51 46 75
2550 2453 2453 2340 2137 1782 1813 1482 1172 1165 1222 1452 1731 1517 1278 1020 1048 1011 932 870 803 738 678 654 319 77 84 48 42 56 46 56
2531 2523 2532 2490 2354 1960 1920 1836 1340 1303 1363 1363 1625 1636 1348 1093 1089 1169 1112 1012 985 880 794 776 409 122 70 60 49 42 50 52
1969 2473 2485 2570 2420 2159 1993 1966 1577 1569 1461 1414 1549 1624 1429 1286 1217 1206 1109 1043 917 1188 1231 792 277 189 117 58 45 32 46 51
847 1971 2264 2423 2402 2228 2000 1870 1893 1886 1726 1720 1583 1662 1509 1365 1325 1293 1197 1052 806 1066 1076 743 268 136 59 74 34 27 39 45
0 1605 2002 2298 2368 2111 1845 1565 1961 1986 2020 1874 1757 1655 1544 1457 1411 1304 1128 1001 583 705 905 629 198 95 72 14 22 20 36 35
0 1256 1857 2217 2168 2086 1680 1670 1725 1699 1884 1927 1817 1627 1505 1434 1267 1137 995 1055 1254 389 595 205 138 75 53 39 5 0 10 18
0 607 1810 2103 2113 2012 1876 1710 1458 1587 1439 1418 1546 1712 1628 1402 1283 1452 1182 822 451 573 319 275 29 27 58 41 0 0 0 5
0 271 1775 2032 2150 1986 1840 1544 1477 1507 1363 1031 955 1051 946 1715 1351 1348 802 631 429 233 208 92 80 33 48 54 12 0 1 0
429 1180 1916 2023 2107 1980 1960 1608 1322 1377 1285 1073 1119 1138 1154 1208 825 1025 775 471 533 338 126 72 38 55 27 24 13 3 0 4
201 2200 2136 1993 2003 2090 2026 1589 1468 1248 1097 983 1006 997 1125 1201 1111 1144 807 726 475 255 128 66 38 35 42 39 16 0 1 10
46 2168 1984 1891 1959 1965 1890 1539 1313 1069 1016 870 679 510 809 802 810 772 667 572 328 230 51 60 35 38 27 21 14 1 3 17
98 1517 1905 1836 1715 1974 1605 1332 1131 1048 821 574 511 604 581 444 467 314 579 365 140 96 33 29 38 37 37 20 14 5 2 5

GFSFLT2_con_mucape_105.txt.gz
CAPE
1457 1606 1695 1776 1858 1767 1768 1686 1668 1690 1762 1835 2030 2048 1887 1873 1821 1844 1926 1921 1645 1369 1150 1050 1016 894 598 629 701 610 657 607
1348 1557 1573 1621 1706 1768 1773 1754 1715 1699 1759 1786 1846 1904 1846 1796 1758 1709 1500 1435 1338 1273 1027 981 902 608 537 547 634 544 520 463
1249 1439 1628 1574 1545 1685 1796 1849 1769 1765 1774 1827 1811 1721 1742 1747 1734 1685 1246 1386 1114 1030 883 775 728 499 450 476 494 423 400 443
1126 1313 1532 1436 1344 1630 1764 2119 1801 1651 1699 1820 1778 1681 1664 1593 1623 1619 1278 1213 951 911 808 678 684 471 364 480 498 406 366 398
1106 1210 1225 1234 1356 1475 1578 2064 1795 1507 1582 1627 1613 1741 1663 1534 1537 1440 1291 1100 816 701 594 481 487 463 331 360 371 315 307 337
1205 1134 1206 1245 1259 1285 1493 1675 1845 1505 1528 1201 1870 1717 1682 1546 1521 1363 1254 1073 792 536 337 236 308 246 281 138 199 157 143 126
1688 1523 1369 1285 1141 1021 1213 1350 1283 1161 1111 1492 1356 1709 1618 1540 1468 1377 1223 1033 879 654 464 267 237 122 162 233 96 119 76 83
2113 1851 1684 1493 1214 1002 896 1001 1093 1142 1252 1832 1289 1783 1676 1566 1435 1333 1181 1031 905 742 638 430 251 213 167 124 100 65 58 66
2230 2176 2048 1880 1680 1489 1277 908 1055 1237 1521 1388 1548 1824 1698 1595 1413 1297 1064 980 897 806 683 641 563 446 283 238 122 53 55 46
1953 2369 2270 2222 2080 1926 1731 1456 925 1071 1272 1263 1388 1818 1649 1399 1247 1192 1102 948 908 829 767 707 681 457 345 294 149 90 72 60
188 2418 2475 2447 2356 2261 2023 1802 1309 945 997 1106 1278 1518 1602 1360 1233 990 955 917 896 884 822 800 818 663 537 289 131 91 54 71
0 1458 2464 2566 2494 2302 2228 2021 1593 1492 1285 1109 1161 1338 1628 1499 1185 993 930 981 969 919 934 707 764 952 609 273 121 82 68 62
0 283 2208 2336 2417 2213 2201 2140 1887 1753 1631 1287 1249 1301 1605 1653 1378 1176 1055 1085 1036 979 885 637 557 696 440 155 99 44 27 37
0 87 1633 2147 2221 2226 2005 1948 1933 1690 1570 1583 1490 1402 1462 1666 1590 1449 1298 1226 1128 874 672 411 358 341 159 118 33 52 19 40
0 9 794 1890 2149 2079 2047 1729 1615 1653 1589 1734 1685 1639 1543 1613 1668 1427 1244 1599 1012 638 408 271 191 161 134 56 39 3 0 27
0 0 663 1611 2064 1923 1713 1545 1387 1570 1533 1680 1784 1717 1757 1542 1538 1392 1280 1247 1300 637 434 232 174 128 111 81 38 11 13 0
43 0 244 1348 1987 1898 1644 1498 1315 1314 1356 1493 1647 1628 1553 1389 1629 1365 1267 921 1065 807 531 296 172 144 58 35 76 44 38 0
156 574 743 1646 2049 1914 1605 1532 1418 1394 1258 1114 1267 1303 1303 1203 1169 1066 1000 1100 1037 596 501 576 214 197 45 19 30 32 10 3
276 1716 1996 1927 2098 1895 1656 1501 1379 1365 1256 1219 1061 979 949 916 738 1036 833 774 824 755 618 781 497 149 25 25 16 46 32 16
302 985 2024 2080 1976 1961 1671 1534 1417 1467 1237 1146 878 994 1310 928 524 782 885 793 587 699 414 363 252 115 39 36 42 24 41 12

GFSFLT2_con_mucape_108.txt.gz
CAPE
1576 1769 1838 1877 1918 1876 1787 1648 1631 1671 1809 2005 2073 2060 1959 1903 1901 1833 1829 1722 1551 1331 1121 1021 1012 741 643 637 730 816 889 799
1706 1817 1818 1819 1813 1839 1800 1716 1667 1686 1724 1940 1985 1857 1856 1872 1797 1703 1539 1532 1407 1181 963 916 868 616 681 659 646 685 735 661
1652 1994 1909 1795 1779 1814 1816 1776 1758 1735 1724 1805 1911 1807 1747 1828 1749 1643 1502 1489 1245 1038 876 838 727 566 532 652 624 583 551 491
1470 1854 1697 1537 1643 1761 1732 1770 1807 1763 1732 1752 1737 1751 1767 1745 1731 1670 1381 1278 1194 959 858 795 677 528 517 586 604 574 484 389
1289 1624 1632 1653 1506 1660 1894 1856 1970 1782 1738 1761 1662 1609 1694 1700 1695 1676 1339 1185 1084 968 819 729 683 512 464 459 506 505 429 402
1018 1213 1376 1371 1312 1732 2291 2634 2118 1777 1772 1782 1896 1792 1575 1652 1592 1617 1360 1187 923 924 756 656 661 536 454 468 514 483 430 346
1821 1128 1371 1411 1379 1316 1536 2100 2106 1633 1630 1679 1737 1634 1464 1553 1553 1536 1438 1180 892 789 734 520 592 572 487 445 407 345 265 226
2071 1984 1262 1237 1249 1234 1146 1376 1588 1737 1655 1620 1409 1407 1555 1800 1501 1522 1403 1218 1023 752 652 426 460 430 463 363 319 318 244 111
1561 2132 2170 1681 1195 1130 1148 1227 1420 1470 1097 1210 1158 1703 1791 1976 1487 1482 1386 1289 1081 881 658 536 482 291 290 342 404 309 331 74
0 1769 1855 2171 1873 1563 1158 1050 1067 881 754 913 1138 1362 1972 2127 1717 1435 1405 1290 1177 998 854 723 505 348 319 275 326 314 201 112
0 827 1913 1869 2150 2071 1538 1325 1139 1168 1051 1130 1118 1931 1815 1890 1725 1488 1332 1285 1153 1043 900 773 652 473 270 623 286 291 172 122
0 12 1576 1838 1920 2066 1923 1599 1458 1420 1287 1140 1193 1528 2032 2193 1506 1495 1363 1502 1078 1006 935 848 653 602 453 525 315 281 178 111
0 0 34 1798 1931 1773 1780 1749 1834 1652 1430 1052 1079 1241 1743 1825 1703 1341 1289 1222 1263 860 911 841 754 563 452 221 317 307 73 83
0 0 0 1172 1459 1867 1774 1763 1770 1485 1401 1334 976 1003 1184 1522 1588 1165 1204 1051 929 822 679 629 934 443 241 270 127 96 59 47
0 0 0 434 1397 1992 1913 1973 1673 1574 1491 1580 1466 1173 1058 1184 990 1082 1145 1030 986 863 725 593 873 317 150 135 77 70 12 10
0 2 0 459 1680 1923 1715 1621 1561 1260 1605 1702 1555 1430 1163 1044 1051 1087 1035 1117 1222 924 703 1101 590 301 80 181 139 11 2 0
40 17 79 0 1510 1757 1866 1722 1512 1288 1372 1592 1627 1618 1495 1480 1421 1347 1272 1303 1047 1113 901 1075 361 204 165 146 60 35 31 17
179 151 402 1 1394 1868 1889 1662 1493 1351 1335 1208 1932 1593 1487 1566 1625 1557 1437 1203 1165 1047 789 511 564 329 197 252 112 15 8 26
377 613 1045 603 1429 1911 1913 1631 1465 1311 1262 1254 1760 1863 1622 1205 1588 1640 1250 1123 1162 1060 610 757 602 475 405 310 129 68 21 12
504 985 1454 1563 1865 1870 1922 1699 1553 1374 1203 1028 1402 1352 1354 1062 1190 1293 1237 1102 1049 686 715 943 564 468 326 268 146 66 14 12

GFSFLT2_con_mucape_111.txt.gz
CAPE
2115 1953 2125 2019 2066 1979 1702 1558 1678 1881 1960 2129 2326 2276 2075 2027 2052 2021 1968 1713 1607 1520 1262 1130 1088 978 952 940 1008 976 1427 1291
2082 1883 2412 2314 2413 1996 1734 1596 1628 1799 1939 2070 2207 2170 2055 1986 2007 1969 1945 1669 1530 1330 1112 1040 928 845 796 789 862 889 1509 1399
1734 1863 2233 2243 2441 2245 1888 1705 1623 1704 1865 1992 2144 2500 2463 2224 2120 1970 1891 1696 1374 1132 1012 978 833 705 624 657 703 1216 1476 1439
1889 1928 2127 2095 2074 2174 2395 2226 2149 2120 2092 2229 2397 2403 2499 2277 2039 1831 1734 1616 1246 1009 932 947 888 1212 1055 653 1197 1267 1303 1314
1390 1729 2158 2366 2058 2081 2080 2059 2177 2064 1956 2026 2160 2157 2367 2387 2397 2117 2167 1634 1765 1168 1172 1376 1392 1315 1347 1372 1339 1264 1227 1190
1560 1462 1534 1884 2034 2081 1972 1972 1984 1965 2849 1922 1925 1846 1934 2087 2226 2309 2238 2049 2036 1726 1748 1552 1526 1262 1228 1244 1238 1279 1277 1040
1638 1632 1616 1333 1975 1978 1819 1620 1727 2457 2344 2361 2135 1893 1854 1788 1965 2104 2133 1915 1726 1724 1519 1488 1444 1213 1103 1133 1090 1143 1040 1031
2262 1668 1691 1552 1307 1450 1782 1577 1630 2337 1984 2088 2132 2155 1941 1979 1718 1846 1896 1666 1471 1497 1346 1282 1325 1240 1143 1102 1060 1079 985 975
406 2187 1785 1586 1673 1679 1461 1611 1542 1756 2033 2293 2130 2198 2003 1916 1553 1611 1566 1394 1236 1112 1150 1152 1273 1074 1185 1064 997 993 938 817
77 380 1946 1848 1894 1931 1905 1743 1878 1866 2032 2003 2238 2189 1944 1787 1609 1744 1485 1469 1357 1157 975 1009 1075 1023 1007 911 1001 908 857 783
0 0 1018 1965 2062 2016 1932 1813 1896 1990 1926 1965 1954 2042 1562 1572 1570 2200 1491 1413 1377 1277 1058 997 863 720 720 763 789 679 654 719
0 0 0 1469 2033 2281 2027 1922 1862 1826 1728 1477 1436 1477 1157 1803 1610 1807 1890 1327 1315 1262 1211 1058 915 866 544 673 693 457 848 656
0 0 0 123 1345 1759 1638 1378 1747 1761 1484 1510 1354 1243 1209 1662 1609 1506 2067 1342 1173 1139 1111 1136 1065 806 597 309 322 462 406 408
0 0 0 0 587 1523 1716 1613 1571 1760 1602 1333 1227 1198 1256 1236 1551 1099 1846 1494 1051 909 1066 957 990 804 324 309 296 341 496 536
0 0 0 0 0 890 2009 2103 2166 1504 1365 1420 1463 1461 1262 1178 1296 1330 1695 1568 1009 983 911 838 693 521 505 284 185 174 109 189
0 0 0 0 0 93 1733 1766 1554 1406 1604 1617 1435 1435 1489 1042 1117 1530 1482 1379 957 754 721 779 525 387 202 351 416 135 168 25
0 0 0 0 0 110 1844 2052 1983 1902 2153 2051 1551 1424 1765 1160 1128 1093 1400 1189 746 768 709 721 658 401 225 261 287 192 46 50
3 0 14 0 144 154 1715 2196 2060 2175 2203 1816 1829 1488 1446 1408 1203 1096 1291 1211 679 709 825 896 643 461 555 438 222 179 27 47
143 94 141 143 375 304 1677 2261 2422 2315 2107 1974 1547 1501 1208 1594 1304 1075 1187 1289 1078 1020 1045 867 707 528 467 764 241 271 133 69
237 229 257 359 558 494 1519 1641 1764 2161 2092 1949 1762 1471 1368 1362 1305 1321 1019 1078 1142 1097 1071 846 650 572 435 318 333 216 146 155

GFSFLT2_con_mucape_114.txt.gz
CAPE
2788 2267 2213 1990 2022 1881 1719 1725 1884 2106 2258 2397 2498 2396 2190 2140 2229 2273 2240 1842 1724 1736 1461 1328 1312 1178 1127 1128 1108 1051 1242 1358
3027 2444 2557 2628 2525 1906 1701 1648 1763 1907 2103 2317 2416 2305 2138 2113 2190 2176 2075 1807 1747 1617 1339 1259 1221 1120 1096 1117 1111 1035 1456 1079
2689 2451 2313 2742 2841 2441 1793 1640 1712 1849 1954 2150 2426 2546 2629 2546 2170 2097 2063 1855 1700 1491 1277 1226 1142 1035 1003 1001 1046 1302 1231 1116
2221 2246 2169 2469 2627 2842 2686 2444 2249 2224 2170 2419 2474 2464 2533 2385 2182 2117 2027 1870 1615 1306 1209 1162 1100 1437 1271 837 1373 985 1087 1050
2314 2120 2204 2366 2689 2513 2657 2598 2571 2578 2605 2597 2441 2465 2631 2666 2543 2462 2533 1921 2231 1341 1544 1643 1404 1303 1255 1316 1148 1257 1069 1019
2258 2396 2291 2544 2591 2129 2262 2800 2531 2554 2658 2807 2628 2836 2751 2579 2641 2482 2423 2621 2277 1940 1740 1606 1564 1452 1387 1380 1337 1248 859 1160
1990 2276 2323 2355 2440 2241 2096 2521 2493 2653 2554 2439 2728 2719 2543 2568 2481 2430 2495 2308 2415 2149 1904 1815 1691 1496 1477 1455 1404 1308 1083 1231
560 1534 2302 2305 2352 2428 2460 2590 2410 2443 2257 2296 2573 2575 2482 2285 2465 2528 2470 2296 2431 2352 2078 1988 1825 1679 1483 1320 1297 1298 1165 1089
287 703 1326 2469 2389 2354 2348 2290 2245 2202 2078 2594 2360 2354 2542 2189 2294 2433 2311 2689 2312 2429 2037 1820 1620 1714 1563 1365 1443 1263 1095 952
26 105 413 1685 2430 2347 2187 2146 2187 2114 2148 2599 2879 2267 2537 2299 2187 2299 2537 2754 2474 2267 2019 1897 1804 1644 1591 1328 1241 1173 1098 1031
0 0 58 567 1766 2401 2609 2376 2259 2178 2195 2348 2577 2823 2988 2712 2370 2132 2353 2114 2322 2163 2075 2011 1745 1479 1401 1327 1409 1127 1101 917
0 0 0 0 718 1872 1937 2327 2551 2321 2291 2373 2554 2903 2801 2965 2313 2348 2242 1924 2095 2204 2127 1866 1893 1596 1393 1315 1316 1255 1166 1054
0 0 0 0 2 418 1027 1966 2146 2408 2536 2476 2492 2808 2845 2713 2137 2142 1648 1507 1875 1798 1770 1897 2024 1818 1508 1313 1321 1031 1018 937
0 0 0 0 0 0 717 1271 1652 1799 2369 2797 2635 2448 2498 2679 2377 2082 1607 1458 1664 1665 1345 1291 1231 1342 936 852 844 899 905 921
0 0 0 0 0 0 0 884 1395 1691 2279 2877 2917 2396 2394 2727 2262 1877 1488 1464 1079 1783 1417 1117 1175 953 1455 919 878 572 522 762
0 0 0 0 0 0 0 22 954 1568 1771 2152 2554 2809 2464 2280 2097 1896 1498 1377 1110 1403 1427 1342 1165 875 709 1258 903 618 481 425
0 0 0 0 0 6 5 5 1126 1322 2036 1943 2164 2276 1977 1910 1872 1934 1485 1509 1134 1202 1548 1305 1114 937 579 724 1111 969 639 456
0 0 0 0 0 0 15 199 482 1442 1657 2146 2386 2306 1652 1576 1512 1685 1525 1371 1116 1024 1375 1176 1165 957 636 1268 959 830 793 484
0 0 0 0 0 7 0 76 586 1943 1679 2364 2392 1972 1530 1481 1681 1811 1854 1319 1183 916 1119 1201 1136 778 1328 1202 1020 654 449 512
0 1 0 43 82 54 69 95 922 1800 2039 2048 2305 2034 1627 1779 1804 1651 1752 1295 1180 1118 1115 1095 847 967 1374 1448 1156 898 798 723

GFSFLT2_con_mucape_117.txt.gz
CAPE
3397 2546 2114 1825 1845 1876 1983 2141 2308 2410 2502 2500 2612 2507 2280 2197 2260 2389 2499 2480 2269 1875 1564 1443 1424 1309 1218 1199 1121 1005 1365 1082
3491 2851 2595 2324 2047 1708 1742 1972 2194 2365 2409 2457 2495 2412 2202 2161 2216 2307 2390 2193 1903 1715 1435 1355 1318 1171 1160 1148 1094 1023 1492 1141
3494 2957 2914 2769 2483 2092 1624 1652 1920 2157 2279 2391 2585 2811 2740 2597 2267 2173 2197 1908 1732 1625 1348 1273 1227 1119 1099 1088 1092 1112 772 1087
2974 3027 2885 3307 2707 2884 2251 2084 1969 2190 2337 2729 2805 2541 2793 2264 2113 2096 2067 1934 1763 1595 1337 1232 1189 1456 1299 1029 1418 1086 821 993
2766 2758 2790 2772 3138 2997 2638 2563 2356 2370 2415 2530 2487 2666 2996 2477 2826 2498 2632 1956 2327 1639 1470 1543 1418 1349 1188 1168 1063 1260 981 812
2731 2945 2821 2771 3270 2801 2675 2635 2885 2722 2789 3570 3238 3053 3217 3029 2622 2647 2885 2622 2420 2170 1827 1628 1891 1876 1750 1352 1298 1464 1252 1288
1451 2674 2978 3147 3142 2937 2974 3083 2618 2739 2788 3407 3052 2690 3409 3085 2640 2839 2659 2444 2615 2446 2015 2019 1847 1590 1606 1582 1535 1563 1529 1012
0 443 2597 2774 3033 3241 3346 3254 2991 3000 2835 2857 3681 3185 3085 2810 2952 2377 2743 2415 2259 2590 2256 1946 1987 1850 1785 1580 1681 1287 1441 1431
0 0 178 1603 2427 2751 3064 2695 2821 2853 2768 3450 2853 3489 3633 3192 2879 2748 2107 2431 2847 2951 2731 2314 2031 2123 1889 1767 1535 1446 1597 1444
0 0 0 248 1061 1990 2611 2745 2985 2775 2904 2637 3073 2752 3241 3215 2715 3007 2712 2712 2870 2756 2676 2499 1973 1879 1926 1930 1703 1628 1581 1472
0 0 0 0 179 1207 2219 2814 2946 2707 2604 2666 2996 2976 3326 3332 2688 2674 3336 2886 2981 2653 2417 2492 2456 2143 1978 1827 1844 1652 1582 1095
0 0 0 0 0 79 997 1932 2522 2923 2850 2550 2824 3463 3365 3232 2724 2889 2795 2962 3075 3059 2725 2457 2255 2153 1584 1680 2016 1674 1519 1266
0 0 0 0 0 0 28 1726 2151 2723 2842 3081 2670 3117 3639 3445 3256 3283 2958 2627 2542 2862 2854 2725 2311 2398 2090 1990 1845 1783 1690 1395
0 0 0 0 0 0 0 6 1150 2272 2677 2866 3300 3430 3579 3685 3612 3331 3288 2558 1960 2264 2293 2681 2851 2767 2046 1705 1104 1202 1323 1376
0 0 0 0 1 0 0 16 7 1520 2343 2586 2998 3395 3607 3733 3706 3466 3281 2871 2504 2089 1995 2117 1920 2488 2513 1307 1008 706 913 1236
0 0 0 0 2 1 0 0 0 443 2095 2392 2405 3257 3482 3752 3819 3675 3328 2804 2337 1849 1648 1634 1782 1564 1752 1935 1703 920 725 678
0 0 0 0 0 0 6 3 2 93 263 2328 2482 2879 3082 3572 3621 3550 3257 2749 2431 2107 1624 1518 1542 1537 1213 1726 2154 1926 1668 1030
0 0 0 0 0 0 0 0 6 16 302 1102 1993 2406 2679 3433 3226 3151 2824 2431 2396 2347 1838 1414 1469 1215 1289 1267 1356 1561 1463 1051
0 0 0 0 0 0 0 0 0 8 13 601 1830 2224 2514 2812 2765 2595 2607 2382 2148 2187 1530 1348 1443 1154 1331 1095 1748 1535 1559 1109
0 0 0 0 0 0 0 0 0 6 27 625 785 2215 2726 2829 2626 2030 2364 2371 1964 1740 1589 1360 1362 1205 1056 1199 1613 1895 1683 1120

GFSFLT2_con_mucape_120.txt.gz
CAPE
3174 2558 2005 1715 1924 2118 2237 2311 2293 2256 2332 2448 2590 2525 2399 2237 2290 2377 2504 2536 2423 1958 1578 1467 1451 1386 1273 1236 1137 1027 995 827
3728 2950 2310 2053 1917 1770 1959 2144 2273 2326 2296 2379 2506 2399 2289 2192 2222 2327 2388 2373 2246 1828 1449 1389 1381 1246 1169 1152 1064 918 807 800
3979 3207 2794 2351 1964 1757 1639 1872 2108 2292 2351 2361 2395 2486 2329 2212 2282 2233 2348 2128 2062 1765 1372 1308 1257 1140 1104 1082 1004 1041 900 683
3457 3317 2921 2966 2182 2085 1851 1890 2045 2318 2468 2371 2617 2716 2676 2480 2309 2142 2192 2005 1820 1658 1424 1271 1206 1157 1057 1062 1063 1145 973 587
3200 3025 2548 3096 2860 2552 1963 1946 1814 2124 2392 2668 2704 2694 2697 2162 2216 1958 2042 2060 1839 1705 1461 1239 1297 1341 1280 1159 1151 1129 1014 725
2959 2967 2496 2579 3066 2921 2466 2239 2116 2087 2155 2549 2424 2572 2583 2096 2362 2321 2338 2078 2250 1934 1613 1402 1369 1287 1317 1154 995 898 1091 867
1451 2908 2586 2479 2598 2229 2502 2359 2287 2429 2425 2523 2614 2334 2538 2595 2178 2489 2283 2369 2172 2188 1877 1533 1493 1494 1495 1401 1224 1286 1326 885
0 7 2507 2374 2409 2115 2588 2338 2575 2667 2647 2700 2752 2617 2551 2503 2409 2568 2408 2306 2353 2166 2164 1812 1648 1673 1597 1437 1251 1260 1362 1154
0 0 0 971 2199 2018 2179 2249 2242 2421 2438 3009 2835 2793 2814 2790 2588 2384 2434 2285 2435 2212 2308 2043 1847 1664 1627 1485 1476 1580 1411 1211
0 0 0 0 3 1752 1673 1879 2074 2276 2480 2416 2768 3002 3090 2618 2489 2723 2691 2469 2367 2213 2182 2268 1858 1798 1714 1589 1567 1515 1437 1256
0 0 0 0 0 0 307 1776 1742 2121 2259 2364 2801 2624 2586 2973 2590 2368 2584 2844 2454 2458 2310 2369 2156 1860 1787 1711 1645 1566 1439 1260
0 0 0 0 0 0 0 375 1977 2185 2224 2015 2381 2630 2313 2342 2809 2463 2208 2571 2754 2473 2430 2369 2297 1972 1774 1701 1752 1573 1397 1258
0 0 0 0 0 0 0 0 236 1985 2306 2323 2249 2359 2557 2345 2497 2728 2365 2041 2483 2676 2461 2286 2190 2062 1973 1706 1638 1517 1430 1313
0 0 0 0 0 0 0 0 0 136 1544 2304 2426 2327 2564 2674 2525 2441 2501 2060 2114 2814 2644 2301 2193 2128 1824 1482 1574 1552 1500 1267
0 0 0 0 0 0 0 0 0 0 570 1250 2359 2433 2293 2869 2693 2384 2474 2385 2105 2287 2516 2375 2001 2108 1836 1395 1179 843 947 1103
0 0 0 0 0 0 0 0 0 0 1 473 1501 2289 2432 2612 2826 2800 2613 2642 2357 2205 2046 1915 2111 2078 1933 1635 1105 926 474 1044
0 0 0 0 0 0 0 0 0 0 0 0 159 1284 2084 2292 2259 2539 2794 2444 2479 2045 1776 1670 1824 1690 1927 1634 1546 1320 1198 962
0 0 0 0 0 0 0 0 0 0 0 0 4 363 1093 1928 1944 2239 2605 2566 1726 898 1736 1611 1617 1524 1506 1386 1412 1457 1246 1034
0 0 0 0 0 0 0 0 0 0 0 0 0 22 308 1185 1677 2019 2464 2624 2117 2006 1797 1582 1477 1371 1395 1195 1120 1196 1326 1192
0 0 0 0 0 0 0 0 0 0 0 0 0 0 12 676 1228 1412 1998 2188 2173 2045 1984 1660 1732 1873 1681 1190 1229 1046 1013 875